TimeAKDT,TemperatureF,Dew PointF,Humidity,Sea Level PressureIn,VisibilityMPH,Wind Direction,Wind SpeedMPH,Gust SpeedMPH,PrecipitationIn,Events,Conditions,WindDirDegrees,DateUTC
12:55 AM,32.4,32.7,100,30.43,7.0,South,24.2,-,N/A,,Scattered Clouds,190,2012-10-26 08:55:00
1:55 AM,32.4,32.7,100,30.43,6.0,South,19.6,-,N/A,,Partly Cloudy,190,2012-10-26 09:55:00
2:55 AM,32.5,32.7,100,30.41,10.0,SSW,19.6,-,N/A,,Mostly Cloudy,200,2012-10-26 10:55:00
3:55 AM,32.7,32.5,99,30.41,9.0,SW,18.4,-,N/A,,Overcast,220,2012-10-26 11:55:00
4:55 AM,32.0,32.0,100,30.40,8.0,SW,16.1,-,N/A,,Overcast,220,2012-10-26 12:55:00
5:55 AM,-9999,-9999,N/A,30.40,4.0,SSW,15.0,-,N/A,,Overcast,210,2012-10-26 13:55:00
6:28 AM,-9999,-9999,N/A,30.39,1.0,SW,17.3,-,N/A,,Mostly Cloudy,220,2012-10-26 14:28:00
6:48 AM,30.2,30.2,100,30.39,0.2,SW,16.1,-,N/A,Fog,Light Freezing Fog,220,2012-10-26 14:48:00
6:55 AM,30.0,30.6,100,30.39,0.2,SW,16.1,-,N/A,Fog,Light Freezing Fog,220,2012-10-26 14:55:00
7:55 AM,29.3,30.2,100,30.39,0.2,SW,13.8,-,N/A,Fog,Light Freezing Fog,230,2012-10-26 15:55:00
8:53 AM,30.2,30.2,100,30.38,0.5,SW,18.4,-,N/A,Fog,Light Freezing Fog,220,2012-10-26 16:53:00
8:55 AM,29.3,30.2,100,30.38,0.5,SW,17.3,-,N/A,Fog,Light Freezing Fog,220,2012-10-26 16:55:00
9:15 AM,30.2,30.2,100,30.38,0.2,SSW,16.1,-,N/A,Fog,Light Freezing Fog,210,2012-10-26 17:15:00
9:35 AM,30.2,30.2,100,30.38,0.5,SSW,18.4,-,N/A,Fog,Light Freezing Fog,210,2012-10-26 17:35:00
9:55 AM,29.5,30.4,100,30.39,0.5,SSW,16.1,-,N/A,Fog,Light Freezing Fog,210,2012-10-26 17:55:00
10:10 AM,30.2,30.2,100,30.39,2.0,SSW,17.3,-,N/A,,Mostly Cloudy,200,2012-10-26 18:10:00
10:30 AM,30.2,30.2,100,30.39,4.0,SW,16.1,-,N/A,,Mostly Cloudy,220,2012-10-26 18:30:00
10:55 AM,29.8,30.6,100,30.39,3.0,SSW,13.8,-,N/A,,Overcast,200,2012-10-26 18:55:00
11:55 AM,29.7,30.2,100,30.40,4.0,South,17.3,-,N/A,,Overcast,190,2012-10-26 19:55:00
12:55 PM,29.8,30.4,100,30.39,4.0,SSW,13.8,-,N/A,,Overcast,210,2012-10-26 20:55:00
1:55 PM,30.0,30.6,100,30.39,4.0,SSW,13.8,-,N/A,,Mostly Cloudy,200,2012-10-26 21:55:00
2:55 PM,29.8,30.2,100,30.39,7.0,SSW,12.7,-,N/A,,Overcast,200,2012-10-26 22:55:00
3:55 PM,29.8,30.2,100,30.39,5.0,South,11.5,-,N/A,,Overcast,190,2012-10-26 23:55:00
4:55 PM,29.7,30.0,100,30.38,6.0,SSW,6.9,-,N/A,,Overcast,200,2012-10-27 00:55:00
5:55 PM,29.7,30.0,100,30.37,5.0,South,5.8,-,N/A,,Mostly Cloudy,190,2012-10-27 01:55:00
6:55 PM,-9999,-9999,N/A,30.35,3.0,South,5.8,-,N/A,,Mostly Cloudy,170,2012-10-27 02:55:00
7:20 PM,-9999,-9999,N/A,30.36,2.5,South,5.8,-,N/A,,Mostly Cloudy,170,2012-10-27 03:20:00
7:55 PM,-9999,-9999,N/A,30.36,3.0,South,6.9,-,N/A,,Overcast,190,2012-10-27 03:55:00
8:26 PM,-9999,-9999,N/A,30.36,2.0,SSE,8.1,-,N/A,,Mostly Cloudy,160,2012-10-27 04:26:00
8:46 PM,-9999,-9999,N/A,30.36,3.0,South,5.8,-,N/A,,Mostly Cloudy,170,2012-10-27 04:46:00
8:55 PM,-9999,-9999,N/A,30.36,2.0,SSW,4.6,-,N/A,,Mostly Cloudy,200,2012-10-27 04:55:00
9:06 PM,-9999,-9999,N/A,30.37,1.5,SSW,5.8,-,N/A,,Mostly Cloudy,200,2012-10-27 05:06:00
9:26 PM,-9999,-9999,N/A,30.37,3.0,South,5.8,-,N/A,,Mostly Cloudy,180,2012-10-27 05:26:00
9:46 PM,-9999,-9999,N/A,30.36,1.8,SSE,5.8,-,N/A,,Mostly Cloudy,160,2012-10-27 05:46:00
9:55 PM,-9999,-9999,N/A,30.37,1.2,South,5.8,-,N/A,,Mist,190,2012-10-27 05:55:00
10:06 PM,-9999,-9999,N/A,30.36,3.0,South,5.8,-,N/A,,Mostly Cloudy,190,2012-10-27 06:06:00
10:55 PM,-9999,-9999,N/A,30.36,1.5,South,3.5,-,N/A,,Mostly Cloudy,170,2012-10-27 06:55:00
11:11 PM,-9999,-9999,N/A,30.35,0.5,South,3.5,-,N/A,Fog,Fog,190,2012-10-27 07:11:00
11:31 PM,28.4,28.4,100,30.36,0.8,Variable,1.2,-,N/A,,Mist,0,2012-10-27 07:31:00
11:55 PM,27.9,28.6,100,30.36,1.0,Variable,2.3,-,N/A,,Mist,0,2012-10-27 07:55:00